EW9366 Weather Reports


Display with metric or nautical units.
time (UTC)temp
F
wind
direction
speed
MPH
gust
MPH
rain 1hr
in
rain 24hr
in
rain mn
in
humidity
%
barometer
mb
20190222091443 39 38 2.0 8.0 0.00 0.00 0.00 58 1021.3
20190222090251 40 1 4.0 10.0 0.00 0.00 0.00 57 1021.3
20190222085652 40 23 5.0 8.0 0.00 0.00 0.00 57 1021.6
20190222085151 40 69 3.0 5.0 0.00 0.00 0.00 57 1021.6
20190222084558 40 62 5.0 8.0 0.00 0.00 0.00 56 1021.6
20190222083552 40 356 6.0 10.0 0.00 0.00 0.00 56 1021.9
20190222082952 40 42 9.0 10.0 0.00 0.00 0.00 56 1022.3
20190222082452 40 37 5.0 8.0 0.00 0.00 0.00 57 1021.9
20190222081857 40 38 4.0 5.0 0.00 0.00 0.00 57 1021.9
20190222081252 40 49 2.0 2.0 0.00 0.00 0.00 57 1021.9
20190222080252 40 32 2.0 5.0 0.00 0.00 0.00 56 1022.3
20190222075551 40 36 4.0 5.0 0.00 0.00 0.00 56 1022.3
20190222075051 40 64 1.0 5.0 0.00 0.00 0.00 56 1022.3
20190222074451 40 52 3.0 5.0 0.00 0.00 0.00 56 1022.3
20190222073751 40 356 1.0 8.0 0.00 0.00 0.00 56 1022.3
20190222073252 40 41 3.0 5.0 0.00 0.00 0.00 55 1021.9
20190222072740 40 33 2.0 5.0 0.00 0.00 0.00 55 1022.3
20190222071951 40 21 0.0 2.0 0.00 0.00 0.00 55 1021.9
20190222071451 40 30 1.0 5.0 0.00 0.00 0.00 55 1021.9
20190222070851 40 38 3.0 5.0 0.00 0.00 0.00 55 1021.6
20190222070152 40 294 0.0 5.0 0.00 0.00 0.00 54 1021.9
20190222065640 40 323 0.0 5.0 0.00 0.00 0.00 54 1021.9
20190222065052 40 12 1.0 5.0 0.00 0.00 0.00 54 1021.9
20190222064551 40 44 2.0 2.0 0.00 0.00 0.00 54 1021.6
20190222063944 40 79 2.0 5.0 0.00 0.00 0.00 54 1021.6
20190222062953 40 45 2.0 2.0 0.00 0.00 0.00 53 1021.9
20190222062351 40 52 1.0 5.0 0.00 0.00 0.00 53 1021.9
20190222061752 40 58 1.0 2.0 0.00 0.00 0.00 53 1021.9
20190222060651 0 0.0 0.0 0.00 0.00 0.00 1021.6
20190222055352 41 358 1.0 5.0 0.00 0.00 0.00 52 1021.6
20190222054752 41 53 4.0 8.0 0.00 0.00 0.00 52 1021.6
20190222054051 41 69 5.0 8.0 0.00 0.00 0.00 52 1021.6
20190222053551 41 18 0.0 8.0 0.00 0.00 0.00 52 1021.9
20190222052951 41 31 5.0 8.0 0.00 0.00 0.00 52 1021.6
20190222052452 41 5 2.0 2.0 0.00 0.00 0.00 52 1021.6
20190222051857 41 357 1.0 2.0 0.00 0.00 0.00 51 1021.6
20190222050957 41 29 3.0 5.0 0.00 0.00 0.00 51 1021.6
20190222050252 41 67 2.0 2.0 0.00 0.00 0.00 51 1021.6
20190222045552 41 93 3.0 5.0 0.00 0.00 0.00 50 1021.6
20190222044451 41 138 3.0 5.0 0.00 0.00 0.00 50 1021.6
20190222043951 41 69 1.0 5.0 0.00 0.00 0.00 50 1021.6
20190222043239 41 79 4.0 5.0 0.00 0.00 0.00 50 1021.6
20190222042651 41 101 4.0 8.0 0.00 0.00 0.00 50 1021.6
20190222041952 41 47 5.0 8.0 0.00 0.00 0.00 50 1021.3
20190222041342 41 156 4.0 8.0 0.00 0.00 0.00 50 1020.9
20190222040452 42 162 3.0 8.0 0.00 0.00 0.00 49 1021.3
20190222035651 42 26 5.0 8.0 0.00 0.00 0.00 48 1021.3
20190222035052 42 47 3.0 8.0 0.00 0.00 0.00 47 1021.6
20190222034351 42 139 6.0 8.0 0.00 0.00 0.00 47 1021.3
20190222033852 42 33 5.0 10.0 0.00 0.00 0.00 47 1021.3
20190222033251 42 62 7.0 10.0 0.00 0.00 0.00 46 1021.3
20190222032551 42 113 3.0 8.0 0.00 0.00 0.00 46 1021.3
20190222032047 42 35 4.0 8.0 0.00 0.00 0.00 46 1021.3
20190222031451 42 155 4.0 10.0 0.00 0.00 0.00 46 1020.9
20190222030751 42 91 6.0 8.0 0.00 0.00 0.00 46 1020.6
20190222030251 42 69 4.0 8.0 0.00 0.00 0.00 45 1020.6
20190222025651 42 68 6.0 8.0 0.00 0.00 0.00 45 1020.6
20190222024951 42 41 4.0 10.0 0.00 0.00 0.00 46 1020.9
20190222024452 42 91 8.0 10.0 0.00 0.00 0.00 45 1020.6
20190222023851 42 86 4.0 8.0 0.00 0.00 0.00 45 1020.6
20190222023151 42 170 1.0 13.0 0.00 0.00 0.00 45 1020.6
20190222022651 42 54 4.0 8.0 0.00 0.00 0.00 44 1020.6
20190222022047 42 41 2.0 5.0 0.00 0.00 0.00 44 1020.2
20190222021355 42 90 6.0 10.0 0.00 0.00 0.00 43 1020.2
20190222020451 42 34 3.0 15.0 0.00 0.00 0.00 43 1020.2
20190222015951 42 36 4.0 13.0 0.00 0.00 0.00 42 1019.8
20190222015446 43 55 9.0 13.0 0.00 0.00 0.00 42 1019.8
20190222014852 43 97 10.0 13.0 0.00 0.00 0.00 41 1019.5
20190222014257 43 72 2.0 8.0 0.00 0.00 0.00 41 1019.5
20190222013652 43 35 6.0 10.0 0.00 0.00 0.00 39 1019.5
20190222012651 43 55 5.0 8.0 0.00 0.00 0.00 38 1019.8
20190222011951 43 37 5.0 10.0 0.00 0.00 0.00 37 1019.8
20190222011452 43 65 4.0 10.0 0.00 0.00 0.00 37 1020.2
20190222010852 43 69 6.0 8.0 0.00 0.00 0.00 36 1020.2
20190222010247 43 41 3.0 8.0 0.00 0.00 0.00 36 1020.2
20190222005651 44 41 5.0 8.0 0.00 0.00 0.00 36 1020.2
20190222005052 44 54 5.0 8.0 0.00 0.00 0.00 36 1020.2
20190222004351 44 96 3.0 8.0 0.00 0.00 0.00 36 1020.6
20190222003752 44 10 5.0 8.0 0.00 0.00 0.00 38 1020.2
20190222003251 44 298 2.0 5.0 0.00 0.00 0.00 39 1020.2
20190222002551 44 288 3.0 5.0 0.00 0.00 0.00 39 1020.6
20190222002030 44 58 3.0 5.0 0.00 0.00 0.00 39 1020.2
20190222001451 44 36 4.0 8.0 0.00 0.00 0.00 40 1020.2
20190222000752 44 33 4.0 5.0 0.00 0.00 0.00 40 1020.2
20190222000251 45 19 4.0 5.0 0.00 0.00 0.00 40 1020.2
20190221235652 45 41 6.0 8.0 0.00 0.00 0.00 42 1019.8
20190221234738 45 32 4.0 10.0 0.00 0.00 0.00 41 1019.5
20190221234151 45 30 4.0 5.0 0.00 0.00 0.00 45 1019.5
20190221233451 46 87 2.0 5.0 0.00 0.00 0.00 47 1019.5
20190221232943 46 30 3.0 5.0 0.00 0.00 0.00 48 1019.8
20190221232251 46 334 2.0 10.0 0.00 0.00 0.00 48 1019.5
20190221231751 46 356 4.0 10.0 0.00 0.00 0.00 48 1019.5
20190221231152 46 35 4.0 8.0 0.00 0.00 0.00 49 1019.5
20190221230451 46 33 4.0 8.0 0.00 0.00 0.00 49 1019.5
20190221225952 47 114 2.0 10.0 0.00 0.00 0.00 50 1019.5
20190221225351 47 36 5.0 15.0 0.00 0.00 0.00 49 1019.5
20190221224651 47 69 7.0 10.0 0.00 0.00 0.00 52 1019.1
20190221224151 47 297 0.0 10.0 0.00 0.00 0.00 52 1019.5
20190221223627 48 31 4.0 10.0 0.00 0.00 0.00 49 1019.5
20190221222851 48 65 7.0 10.0 0.00 0.00 0.00 46 1018.8
20190221222351 48 31 8.0 10.0 0.00 0.00 0.00 46 1019.5
20190221221752 48 150 1.0 5.0 0.00 0.00 0.00 46 1019.8
20190221221052 48 136 5.0 8.0 0.00 0.00 0.00 46 1020.2
20190221220452 48 55 5.0 8.0 0.00 0.00 0.00 47 1020.6
20190221215943 49 35 3.0 8.0 0.00 0.00 0.00 46 1020.6
20190221215052 49 66 5.0 8.0 0.00 0.00 0.00 46 1020.2
20190221213652 49 120 3.0 8.0 0.00 0.00 0.00 46 1020.6
20190221213044 49 64 6.0 8.0 0.00 0.00 0.00 46 1020.6
20190221212542 49 79 5.0 8.0 0.00 0.00 0.00 45 1020.6
20190221211451 49 86 4.0 8.0 0.00 0.00 0.00 45 1020.9
20190221210751 49 39 2.0 8.0 0.00 0.00 0.00 45 1021.3
20190221210251 49 30 5.0 8.0 0.00 0.00 0.00 45 1021.3
20190221205651 49 34 2.0 8.0 0.00 0.00 0.00 45 1021.6
20190221204952 49 208 0.0 2.0 0.00 0.00 0.00 45 1021.3
20190221204447 49 69 0.0 5.0 0.00 0.00 0.00 46 1021.3
20190221203852 49 149 1.0 5.0 0.00 0.00 0.00 45 1021.3
20190221203152 48 7 1.0 8.0 0.00 0.00 0.00 46 1021.3
20190221202651 48 72 5.0 8.0 0.00 0.00 0.00 45 1021.3
20190221202052 47 12 1.0 8.0 0.00 0.00 0.00 46 1021.3
20190221201351 47 42 3.0 5.0 0.00 0.00 0.00 49 1020.9
20190221200840 47 313 0.0 2.0 0.00 0.00 0.00 50 1020.9
20190221200251 47 2 2.0 5.0 0.00 0.00 0.00 52 1020.9
20190221195752 46 325 1.0 5.0 0.00 0.00 0.00 52 1020.9
20190221195051 46 73 2.0 8.0 0.00 0.00 0.00 52 1020.9
20190221194452 46 184 0.0 2.0 0.00 0.00 0.00 52 1020.9
20190221193951 46 33 1.0 2.0 0.00 0.00 0.00 52 1021.3
20190221193356 46 200 0.0 0.0 0.00 0.00 0.00 53 1021.6
20190221192751 45 342 0.0 5.0 0.00 0.00 0.00 50 1021.6
20190221191951 46 199 0.0 5.0 0.00 0.00 0.00 51 1021.3
20190221191052 46 94 2.0 5.0 0.00 0.00 0.00 51 1020.9
20190221190451 46 199 1.0 2.0 0.00 0.00 0.00 51 1020.9
20190221185251 46 61 3.0 8.0 0.00 0.00 0.00 52 1020.9
20190221184751 45 82 5.0 8.0 0.00 0.00 0.00 53 1020.9
20190221184152 46 97 5.0 8.0 0.00 0.00 0.00 53 1021.3
20190221183451 46 125 4.0 8.0 0.00 0.00 0.00 53 1021.6
20190221182951 45 72 4.0 8.0 0.00 0.00 0.00 54 1021.6
20190221182351 45 55 3.0 8.0 0.00 0.00 0.00 55 1021.6
20190221181652 45 75 5.0 8.0 0.00 0.00 0.00 55 1021.9
20190221181151 45 249 1.0 5.0 0.00 0.00 0.00 56 1021.9
20190221180549 45 143 4.0 5.0 0.00 0.00 0.00 56 1021.9
20190221180051 46 60 2.0 5.0 0.00 0.00 0.00 55 1022.6
20190221175458 46 162 2.0 5.0 0.00 0.00 0.00 55 1022.3
20190221174750 46 162 2.0 8.0 0.00 0.00 0.00 55 1022.3
20190221174251 46 87 1.0 5.0 0.00 0.00 0.00 54 1022.6
20190221173451 46 250 0.0 5.0 0.00 0.00 0.00 56 1022.3
20190221172950 46 153 4.0 10.0 0.00 0.00 0.00 55 1022.3
20190221172458 46 155 8.0 10.0 0.00 0.00 0.00 56 1022.3
20190221171857 46 62 5.0 8.0 0.00 0.00 0.00 55 1022.3
20190221171352 46 72 4.0 5.0 0.00 0.00 0.00 55 1022.3
20190221170839 46 156 3.0 5.0 0.00 0.00 0.00 55 1022.6
20190221170240 46 37 3.0 10.0 0.00 0.00 0.00 54 1022.6
20190221165351 46 83 6.0 13.0 0.00 0.00 0.00 53 1022.6
20190221164652 46 59 4.0 10.0 0.00 0.00 0.00 53 1022.6
20190221164151 46 83 7.0 10.0 0.00 0.00 0.00 53 1022.6
20190221163552 45 88 4.0 5.0 0.00 0.00 0.00 54 1023.1
20190221162852 44 83 3.0 5.0 0.00 0.00 0.00 55 1022.6
20190221162252 44 93 8.0 10.0 0.00 0.00 0.00 58 1022.3
20190221161443 43 80 3.0 8.0 0.00 0.00 0.00 58 1022.3
20190221160851 42 52 6.0 13.0 0.00 0.00 0.00 59 1022.6
20190221160151 42 82 3.0 8.0 0.00 0.00 0.00 60 1022.6
20190221155652 42 64 3.0 5.0 0.00 0.00 0.00 61 1022.6
20190221155101 42 148 6.0 8.0 0.00 0.00 0.00 62 1022.6
20190221154352 42 62 3.0 10.0 0.00 0.00 0.00 62 1021.9
20190221153851 42 41 4.0 8.0 0.00 0.00 0.00 62 1022.3
20190221153251 42 115 3.0 13.0 0.00 0.00 0.00 62 1022.3
20190221152652 41 45 8.0 10.0 0.00 0.00 0.00 62 1022.3
20190221151951 41 68 6.0 10.0 0.00 0.00 0.00 64 1022.3
20190221151448 40 49 3.0 15.0 0.00 0.00 0.00 67 1022.3
20190221150752 40 323 3.0 10.0 0.00 0.00 0.00 68 1021.6
20190221150253 40 98 5.0 8.0 0.00 0.00 0.00 69 1022.6
20190221145457 40 53 6.0 10.0 0.00 0.00 0.00 69 1022.3
20190221144852 0 0.0 0.0 0.00 0.00 0.00 1022.6
20190221144024 39 32 3.0 8.0 0.00 0.00 0.00 71 1022.3
20190221143351 38 32 2.0 2.0 0.00 0.00 0.00 72 1021.9
20190221142810 38 37 1.0 5.0 0.00 0.00 0.00 74 1022.3
20190221142250 38 64 2.0 5.0 0.00 0.00 0.00 74 1022.3
20190221141751 37 186 1.0 5.0 0.00 0.00 0.00 75 1021.9
20190221141151 37 359 0.0 2.0 0.00 0.00 0.00 77 1021.9
20190221140251 37 335 0.0 5.0 0.00 0.00 0.00 73 1021.9
20190221135551 36 114 3.0 5.0 0.00 0.00 0.00 73 1021.9
20190221135052 36 13 0.0 2.0 0.00 0.00 0.00 74 1021.6
20190221134451 36 29 1.0 5.0 0.00 0.00 0.00 74 1021.6
20190221133751 36 46 4.0 5.0 0.00 0.00 0.00 75 1021.6
20190221133252 35 133 3.0 5.0 0.00 0.00 0.00 76 1021.3
20190221132651 35 66 3.0 5.0 0.00 0.00 0.00 76 1021.3
20190221131949 35 333 2.0 5.0 0.00 0.00 0.00 76 1021.3
20190221131452 35 28 0.0 8.0 0.00 0.00 0.00 77 1021.3
20190221130844 35 38 6.0 8.0 0.00 0.00 0.00 78 1021.3
20190221130151 35 28 4.0 5.0 0.00 0.00 0.00 78 1021.6
20190221125552 35 58 2.0 8.0 0.00 0.00 0.00 78 1021.3
20190221125051 35 29 2.0 8.0 0.00 0.00 0.00 78 1021.3
20190221124351 35 83 4.0 8.0 0.00 0.00 0.00 77 1021.3
20190221123852 35 327 0.0 5.0 0.00 0.00 0.00 78 1021.6
20190221123257 35 141 2.0 5.0 0.00 0.00 0.00 78 1021.3
20190221122552 35 49 1.0 8.0 0.00 0.00 0.00 80 1021.6
20190221122051 35 158 3.0 8.0 0.00 0.00 0.00 80 1021.3
20190221121451 35 357 1.0 2.0 0.00 0.00 0.00 80 1021.6
20190221120751 35 340 0.0 5.0 0.00 0.00 0.00 80 1021.6
20190221120252 35 27 2.0 5.0 0.00 0.00 0.00 80 1021.3
20190221115651 35 252 0.0 2.0 0.00 0.00 0.00 81 1021.3
20190221114951 35 53 1.0 5.0 0.00 0.00 0.00 82 1021.3
20190221114451 34 32 0.0 5.0 0.00 0.00 0.00 82 1021.6
20190221113852 34 87 2.0 5.0 0.00 0.00 0.00 82 1021.6
20190221113151 34 24 1.0 2.0 0.00 0.00 0.00 82 1021.6
20190221112652 34 80 2.0 2.0 0.00 0.00 0.00 82 1021.3
20190221112051 33 51 1.0 2.0 0.00 0.00 0.00 81 1021.3
20190221111351 33 309 0.0 2.0 0.00 0.00 0.00 81 1021.3
20190221110751 33 5 0.0 2.0 0.00 0.00 0.00 81 1021.3
20190221110251 33 331 0.0 0.0 0.00 0.00 0.00 80 1021.3
20190221105552 33 331 0.0 0.0 0.00 0.00 0.00 80 1020.9
20190221105051 34 331 0.0 0.0 0.00 0.00 0.00 80 1020.9
20190221104440 34 342 0.0 0.0 0.00 0.00 0.00 80 1020.2
20190221103751 35 342 0.0 0.0 0.00 0.00 0.00 80 1020.2
20190221103251 35 342 0.0 0.0 0.00 0.00 0.00 79 1020.2
20190221102651 35 342 0.0 0.0 0.00 0.00 0.00 79 1020.2
20190221101952 35 348 0.0 2.0 0.00 0.00 0.00 79 1019.8
20190221101448 35 241 0.0 2.0 0.00 0.00 0.00 79 1019.5
20190221100851 35 28 0.0 2.0 0.00 0.00 0.00 79 1019.5
20190221100351 35 22 1.0 2.0 0.00 0.00 0.00 79 1019.5
20190221095757 35 4 0.0 2.0 0.00 0.00 0.00 79 1019.5
20190221095051 35 32 0.0 5.0 0.00 0.00 0.00 78 1019.5
20190221094351 35 51 0.0 2.0 0.00 0.00 0.00 79 1019.5
20190221093852 35 33 2.0 2.0 0.00 0.00 0.00 78 1019.5
20190221093248 35 98 1.0 2.0 0.00 0.00 0.00 78 1019.5
20190221092552 35 356 0.0 2.0 0.00 0.00 0.00 77 1019.1
20190221092051 35 347 0.0 0.0 0.00 0.00 0.00 76 1019.5